Regional Weather Roundup
Issued by NWS Wakefield, VA

Home | Current Version | Previous Version | Text Only | Print | Product List | Glossary Off
Versions: 1 2 3 4 5 6 7 8 9 10 11 12 13 14 15 16 17 18 19 20 21 22 23 24 25 26 27 28 29 30 31 32 33 34 35 36 37 38 39 40 41 42 43 44 45 46 47 48 49 50

000
ASUS41 KAKQ 030915
RWRAKQ

REGIONAL WEATHER ROUNDUP
NATIONAL WEATHER SERVICE WAKEFIELD VA
500 AM EDT FRI JUL 03 2015

Note: "fair" indicates few or no clouds below 12,000 feet with no
significant weather and/or obstructions to visibility. * = Denotes
station may not report precipitation (e.g., rain,snow,etc.),
thunder or fog.

VAZ042-051-052>054-056-031000-
NORTHERN VIRGINIA

CITY           SKY/WX    TMP DP  RH WIND       PRES   REMARKS
WASH NATIONAL  PTCLDY    68  63  84 CALM      29.93R
DULLES         PTCLDY    60  58  92 CALM      29.93S FOG
FORT BELVOIR   CLEAR     61  59  94 SE1       29.93R FOG
QUANTICO       NOT AVBL
FREDERICKSBRG* CLEAR     64  64 100 CALM      29.93S FOG
STAFFORD*        N/A     58  57  97 CALM      29.97S FOG
WARRENTON      FOG       61  61 100 CALM      29.93S VSB<1/4
CULPEPER*      FOG       58  58 100 CALM      29.95S VSB 1/2
MANASSAS*      CLOUDY    63  61  94 CALM      29.94R VSB<1/4
LEESBURG*      FOG       61  61 100 CALM      29.95S VSB 1/4
WINCHESTER     CLEAR     61  61 100 CALM      29.95S FOG
FRONT ROYAL*   FAIR      61  61 100 S3        29.94S
LURAY*         FOG       61  61 100 CALM      29.96S VSB<1/4
$$

VAZ048-049-060>072-079>083-031000-
CENTRAL AND SOUTH CENTRAL VIRGINIA

CITY           SKY/WX    TMP DP  RH WIND       PRES   REMARKS
RICHMOND       MOCLDY    68  65  90 N3        29.93R FOG
CHESTERFIELD*  NOT AVBL
PETERSBURG*    CLEAR     64  64 100 CALM      29.93S FOG
HANOVER        CLEAR     63  62  97 CALM      29.94F FOG
TAPPAHANNOCK*  CLEAR     63  60  90 CALM      29.93S FOG
QUINTON*       FAIR      66  65  99 CALM      29.92S
CHARLOTTSVILLE MOCLDY    62  61  96 CALM      29.94S FOG
GORDONSVILLE*  FOG       61  61 100 CALM      29.93S VSB 3/4
ORANGE*          N/A     63  61  94 CALM      29.95S FOG
LOUISA*        PTCLDY    61  61 100 CALM      29.92F FOG
BUMPASS*       FAIR      60  60  99 MISG      29.94S
FARMVILLE*     FOG       64  64 100 CALM      29.93R VSB 1/4
CREWE*           N/A     65  64  95 CALM      29.93S
FORT PICKETT*  FAIR      64  63  98 CALM      29.93S
CHASE CITY*    FAIR      67  67 100 CALM      29.94R
CLARKSVILLE*   FAIR      68  66  94 CALM      29.93R
SOUTH HILL*    CLEAR     65  65  99 CALM      29.99R
LAWRENCEVILLE* NOT AVBL
EMPORIA*         N/A     66  66 100 CALM      29.93R FOG
$$

VAZ088>098-031000-
SOUTHEAST VIRGINIA

CITY           SKY/WX    TMP DP  RH WIND       PRES   REMARKS
NORFOLK        CLOUDY    73  69  87 NE13      29.88F
VIRGINIA BEACH PTCLDY    72  67  84 NE6       29.88S
NORFOLK NAVAL  PTCLDY    72  69  90 N8        29.90S FOG
WEST POINT*    CLEAR     68  65  92 CALM      29.93S
SALUDA*        FAIR      69  66  88 NW6       29.91S
NEWPORT NEWS   CLEAR     67  66  97 N5        29.91R FOG
LANGLEY AFB    CLEAR     69  67  93 NW7       29.88S
FORT EUSTIS    CLEAR     69  69 100 N5        29.89S
WILLIAMSBURG*    N/A     70  70 100 N3        29.92R
HR EXEC AP*    FAIR      68  64  88 CALM      29.92R
FRANKLIN*      CLEAR     67  67  98 CALM      29.91R FOG
WAKEFIELD      CLEAR     68  66  93 CALM      29.91S FOG
$$

VAZ020-022-025-037-045-031000-
WEST CENTRAL AND SOUTHWEST VIRGINIA

CITY           SKY/WX    TMP DP  RH WIND       PRES   REMARKS
STAUNTON*      FOG       64  63  95 CALM      29.99R VSB 1/4
WAYNESBORO*    PTSUNNY   59  59  99 SE3       29.98S
HOT SPRINGS VA CLOUDY    61  56  84 CALM      30.03S
LYNCHBURG      CLOUDY    65  65 100 CALM      29.96R FOG
DANVILLE       MOCLDY    68  66  93 CALM      29.93R FOG
SOUTH BOSTON*    N/A     64  63  95 MISG      29.94R VSB 1
MARTINSVILLE   CLOUDY    68  68 100 CALM      29.97R FOG
ROANOKE        CLOUDY    68  66  93 CALM      29.97R FOG
BLACKSBURG     CLOUDY    65  65 100 E3        30.01R FOG
DUBLIN*        CLOUDY    66  66 100 NE3       29.99S FOG
MARION*        RAIN      65  64  96 CALM      30.01S
HILLSVILLE*    CLOUDY    64  64  99 S3        29.99S FOG
RICHLANDS*     CLOUDY    64  64 100 SE3       29.97S
WISE*          CLOUDY    66  66 100 S3        29.97S
ABINGDON*      CLOUDY    68  68 100 SE3       29.95S
$$

MDZ021>025-VAZ099-100-031000-
SOUTHERN MARYLAND AND THE DELMARVA PENINSULA

CITY           SKY/WX    TMP DP  RH WIND       PRES   REMARKS
PATUXENT RIVER CLEAR     64  63  96 W6        29.92R
BAY BRIDGE APT   N/A     66  64  94 NW3       29.93R
LEONARDTOWN    CLOUDY    61  61 100 CALM      29.95R VSB 1/4
DOVER          CLEAR     64  64 100 NW3       29.90R
GEORGETOWN     CLEAR     63  62  97 CALM      29.93R FOG
EASTON         CLEAR     63  63 100 CALM      29.96R
CAMBRIDGE        N/A     61  59  94 CALM      29.92R
SALISBURY      CLEAR     62  61  96 CALM      29.92R FOG
OCEAN CITY     CLEAR     63  62  97 CALM      29.92R FOG
WALLOPS ISLAND CLEAR     65  65 100 CALM      29.92R FOG
ACCOMACK*      CLEAR     64  64 100 NE5       29.91S FOG
$$

NCZ012>017-030>032-031000-
NORTH CENTRAL AND EASTERN NORTH CAROLINA

CITY           SKY/WX    TMP DP  RH WIND       PRES   REMARKS
ROANOKE RAPIDS FAIR      68  66  94 CALM      29.91S FOG
RALEIGH        MOCLDY    70  68  93 CALM      29.94R FOG
ELIZABETH CITY MOCLDY    73  71  93 NW6       29.89R
AHOSKIE*       CLOUDY    69  68  96 CALM      29.92R FOG
EDENTON*       MOCLDY    69  68  97 CALM      29.90R FOG
CURRITUCK*     MOCLDY    72  70  93 NW3       29.89S FOG
KILL DEVIL HLS PTCLDY    70  68  95 CALM      29.88R FOG
MANTEO         MOCLDY    73  73  99 W5        29.89R
CAPE HATTERAS  MOCLDY    75  71  87 W7        29.91R
TARBORO*         N/A     73  71  95 CALM      29.92R FOG
GOLDSBORO      CLOUDY    71  69  95 SW6       29.91R
WASHINGTON     CLOUDY    72  71  97 SW3       29.92R
GREENVILLE     CLOUDY    72  72 100 SW3       29.94R
NEW BERN       CLEAR     71  67  87 SW6       29.94R
WILMINGTON     CLOUDY    72  69  90 SW10      29.97R
$$

VAZ048-031000-
ELSEWHERE

CITY           SKY/WX    TMP DP  RH WIND       PRES   REMARKS
HARRISBURG PA  PTCLDY    63  60  90 NW3       29.94R
BALTIMORE      CLEAR     61  61 100 CALM      29.92S
ANNAPOLIS      CLEAR     66  63  90 W3        29.92R FOG
ANDREWS AFB    FOG       61  61 100 S1        29.93R VSB 1/2
PHILADELPHIA   CLEAR     67  62  84 NW3       29.92R
HENDERSON NC     N/A     67  65  94 CALM      29.94R FOG
GREENSBORO     MOCLDY    70  68  94 E5        29.94R
ROCKY MOUNT    CLOUDY    72  71  97 CALM      29.91S FOG
$$

VAZ100-031000-
MARINE

STATION/POSITION TIME  TEMP    WIND        PRES    WAVE   SWELL
                       AIR SEA DIR/SP/G            HT/PER HT/PER
                 (UTC) (F)     (DEG/KT/KT) (MB)    (FT/S) (FT/S)
BRANDYWINE LGT   0800   72 74  360/ 11/ 12 1012.4S
CAPE MAY NJ      0800   69 76   30/  1/  2 1011.9S
LEWES DE         0800   71 72  340/  8/ 10 1012.1S
15NM E FENWICK I 0850   71 73              1012.6R   3/ 8
OCEAN-CITY-INLET 0800   66 71  310/  3/  3 1012.2R
WACHAPREAGUE VA  0800   67 80  350/  2/  3 1012.8R
THOMAS POINT MD  0800   69 76  310/  7/  8 1013.4R
GOOSES REEF MD   0900   72 77  330/  4/  6 1014.3R
COVE POINT MD    0800   69     310/  5/  6 1013.3S
SOLOMONS ISLAND  0800      79                N/A
BISHOPS HEAD MD  0800   68     360/  3/  4 1012.3F
PINEY POINT MD   0800           10/  4/  5   N/A
CAMBRIDGE MD     0800   67 78   CALM  /  1 1012.7R
LEWISETTA VA     0800   69 79  320/  4/  5 1012.7R
RAPPAHANNOCK LGT 0800           20/ 10/ 12 1012.9R
STINGRAY PT      0900   73 80  350/ 10/ 12 1012.9R   1/ 2
YORK RVR RNG VA  0800   73     360/ 12/ 13 1011.8S
YORKTOWN VA      0800   71 79  340/  9/ 10 1012.3R
JAMESTOWN VA     0900   69 82  340/  4/  6   N/A
DOMINION TERM VA 0800   71      10/  7/  9 1012.1S
KIPTOPEKE VA     0800      81   30/  5/  8   N/A
CHES BAY BRIDGE  0800   73 77   20/ 10/ 11 1011.5F
CAPE HENRY VA    0800   72      20/ 12/ 13 1010.3S
CHESAPEAKE LGHT  0800   73      20/ 13/ 14 1012.3F
WILLOUBY STN VA  0800   72     350/  9/ 10 1012.9F
CAPE HENRY BUOY  0828      78                N/A     3/ 8
1ST LANDING BUOY 0900      76              1011.9R   1/ 4
CAPE CHARLES BUO 0826      76                N/A     3/ 6   2/ 6
OFFSHORE WE BUOY 0811      78                N/A     3/ 8   3/ 8
64NM E OF VA BCH 0850   75 77   10/ 10/ 16 1010.9F   4/ 8   5/ 8
DUCK PIER NC     0800   71 67   10/  3/  3 1010.2F
44100 DUCK FRF   0824      77                N/A     3/ 7
44056 DUCK FRF   0811      74                N/A     2/ 7
OREGON INLET NC  0800   74 82  270/  2/  4 1011.0F
HATTERAS NC      0800   78 78  290/  8/  9 1011.6F
DIAMOND SHLS NC  0850   79 82  270/ 14/ 17 1012.4R   7/ 7   5/ 7
CAPE LOOKOUT NC  0900   76     250/ 11/ 14 1013.5R
$$



USA.gov is the U.S. government's official web portal to all federal, state and local government web resources and services.